Terug naar catalogus

ION SCV-006

ActiefWetenschapSSO
NORAD 52761·PAYLOAD·🇮🇹 Italy

Gelanceerd May 25, 2022 vanaf Cape Canaveral Space Force Station

Loading…

Volgende Passages (komende 24 uur)

TLE

VersSource: Space-Track

Epoch: Sep 14, 2026, 20:38 UTC

1 52761U 22057AF  26257.86026462  .00012186  00000-0  24078-3 0  9995
2 52761  97.6219  50.9813 0017212 146.0397 214.1958 15.47132544239972

Volg ION SCV-006 in realtime met AllMySat

Download on the App Store